Location: Brienzwiler
(46.7508°N, 8.1014°E)
Time: 07:00:34
(UTC+00:00)

Cosmos 2278 Rocket - Pass Details

Date: 05 July 2020
Orbit: 841 x 846 km, 71.0° (Epoch: 05 August)

Event Time Altitude Azimuth Distance (km) Brightness Sun altitude
Rises 22:45:03 0° 326° (NW) 3,415 6.6 -19.8°
Reaches altitude 10° 22:47:43 10° 317° (NW) 2,474 5.5 -19.9°
Maximum altitude 22:52:42 33° 255° (WSW) 1,393 3.3 -20.0°
Enters shadow 22:54:45 26° 218° (SW) 1,622 3.3 -20.1°
